Lapse_Rate
7.5 7.6 7.8 7.9 7.7 7.3 7.1 7.1 6.9 6.7 6.6 6.6 6.5 6.5 6.4 6.3 6.2 6.1 6.2 6.2 6.3 6.5 6.5 6.5 6.2 6.2 6.3 6.1 6.0 5.8 5.9 6.0 6.1 6.2 6.3 6.2 6.2 6.2 6.4 6.5 6.4 6.5 6.4
7.4 7.5 7.6 7.7 7.6 7.3 7.0 7.0 7.0 6.8 6.5 6.3 6.4 6.4 6.3 6.0 6.0 6.1 6.3 6.4 6.4 6.5 6.3 6.1 6.3 6.0 6.0 6.2 6.2 6.3 6.2 6.1 6.1 6.1 6.1 6.1 6.2 6.2 6.3 6.4 6.4 6.4 6.5
7.3 7.5 7.4 7.4 7.4 7.4 7.1 6.9 6.9 6.7 6.4 6.2 6.2 6.2 6.2 5.6 5.9 6.0 6.3 6.4 6.4 6.3 6.2 6.3 6.3 6.4 6.5 6.5 6.6 6.5 6.4 6.5 6.6 6.6 6.6 6.6 6.4 6.3 6.3 6.0 6.2 6.3 6.4
7.3 7.3 7.2 7.4 7.5 7.3 7.3 7.1 6.9 6.7 6.5 6.4 6.3 6.1 5.9 5.9 6.1 6.1 6.2 6.2 6.2 6.2 6.2 6.4 6.5 6.7 6.6 6.6 6.6 6.7 6.8 6.7 6.8 6.8 6.9 6.9 6.9 6.8 6.5 6.5 6.3 6.4 6.3
7.1 7.2 7.2 7.4 7.5 7.5 7.4 7.3 7.1 6.9 6.7 6.5 6.4 6.1 5.9 6.1 6.1 5.9 5.8 6.0 6.1 6.3 6.5 6.6 6.6 6.6 6.5 6.5 6.6 6.6 6.7 6.7 6.8 6.8 6.7 6.7 6.6 6.6 6.5 6.4 6.3 6.5 6.1
7.0 7.1 7.1 7.3 7.3 7.4 7.4 7.3 7.2 7.0 6.7 6.5 6.4 6.2 6.1 6.0 5.8 5.9 6.0 6.2 6.4 6.4 6.4 6.4 6.5 6.7 6.7 6.6 6.5 6.6 6.7 6.7 6.8 6.9 6.9 6.8 6.8 6.7 6.6 6.5 6.6 6.6 6.6
7.0 7.0 7.0 7.1 7.1 7.2 7.3 7.3 7.2 7.0 6.8 6.6 6.4 6.3 6.3 6.1 6.2 6.4 6.4 6.4 6.4 6.4 6.4 6.5 6.6 6.7 6.8 6.8 6.7 6.6 6.6 6.7 6.8 6.9 6.9 7.0 7.0 6.9 7.0 7.0 6.7 6.5 6.6
6.9 6.9 7.0 7.0 7.0 6.9 7.0 7.2 7.2 6.9 6.7 6.5 6.5 6.3 6.3 6.3 6.4 6.5 6.6 6.5 6.4 6.3 6.3 6.5 6.6 6.6 6.5 6.6 6.7 6.7 6.7 6.6 6.6 6.6 6.7 6.8 6.9 7.2 7.1 7.1 7.2 7.1 6.7
7.0 6.9 6.9 7.0 7.0 6.8 6.7 6.8 7.0 6.8 6.7 6.5 6.5 6.5 6.4 6.5 6.6 6.6 6.7 6.8 6.7 6.5 6.5 6.5 6.5 6.5 6.6 6.6 6.5 6.6 6.5 6.6 6.6 6.5 6.4 6.4 6.6 6.6 6.9 7.1 7.1 7.1 6.9
7.0 7.0 6.9 7.1 7.0 6.9 6.9 6.7 6.8 6.7 6.7 6.6 6.6 6.7 6.5 6.6 6.6 6.6 6.7 6.6 6.5 6.5 6.6 6.6 6.6 6.6 6.5 6.4 6.5 6.5 6.5 6.7 6.7 6.6 6.6 6.7 6.6 6.6 6.6 6.6 6.5 6.6 6.6
6.7 6.8 7.0 7.1 7.2 7.1 6.9 7.1 7.1 6.9 6.7 6.6 6.6 6.6 6.6 6.6 6.7 6.7 6.7 6.9 6.7 6.6 6.5 6.5 6.3 6.2 6.2 6.4 6.5 7.0 6.9 6.7 6.3 6.3 6.3 6.2 6.2 6.0 6.0 5.4 5.4 5.6 5.5
6.5 6.7 6.8 7.0 7.0 7.2 7.3 7.1 7.0 7.2 7.2 6.9 6.8 6.8 6.7 6.7 6.8 6.8 6.7 6.7 6.7 6.7 6.7 6.6 6.2 6.1 6.4 6.5 6.8 6.6 6.2 6.1 5.9 5.8 5.6 5.3 5.1 4.8 4.7 4.7 4.8 4.7 4.8
6.2 6.4 6.6 6.6 6.9 7.0 6.9 7.0 7.0 7.1 7.1 7.2 7.1 7.1 7.0 6.9 6.8 6.8 6.6 6.6 6.4 6.3 6.5 6.5 6.5 6.6 6.5 6.6 6.4 6.2 6.2 6.1 5.8 5.5 5.2 4.9 4.6 4.3 4.3 4.6 5.4 5.7 5.9
6.2 5.9 6.4 6.6 6.5 6.6 6.8 6.9 7.0 7.0 7.1 7.1 7.0 7.1 7.0 6.9 6.7 6.6 6.5 6.5 6.3 6.2 6.4 6.7 6.5 6.6 6.3 6.3 6.1 6.2 6.2 5.9 5.6 5.4 5.3 4.8 4.4 4.4 5.5 5.7 5.9 6.1 6.0
6.7 6.4 6.1 5.9 6.2 6.2 6.3 6.5 6.8 7.0 7.1 7.1 7.0 6.8 6.7 6.6 6.7 6.7 6.6 6.7 6.8 6.8 6.6 6.8 6.6 6.4 6.3 6.3 6.2 6.2 5.9 5.7 5.6 5.4 5.3 4.9 4.7 5.2 5.2 5.4 5.6 5.7 5.9
7.0 6.3 6.1 6.2 6.1 6.1 6.3 6.4 6.4 6.4 6.5 6.6 6.5 6.4 6.4 6.4 6.2 6.4 6.6 6.6 6.7 6.7 6.5 6.8 6.6 6.4 6.2 6.2 6.2 6.1 5.7 5.6 5.5 5.4 5.5 5.2 5.9 5.3 5.1 5.1 5.4 5.6 5.8
7.0 6.6 6.0 6.1 6.1 6.2 6.2 6.1 6.0 6.0 6.0 6.1 6.0 5.9 5.9 5.7 5.5 5.3 6.0 6.5 6.5 6.5 6.4 6.8 6.5 6.4 6.2 6.3 6.2 6.0 5.7 5.6 5.5 6.0 5.9 5.7 5.7 5.4 5.1 5.3 5.2 5.4 5.5
6.4 6.6 6.1 5.9 5.9 5.8 5.9 5.9 5.6 5.3 5.2 4.9 4.8 4.9 5.3 5.1 5.8 5.0 5.7 6.2 6.4 6.3 6.6 6.8 6.5 6.2 6.3 6.1 6.2 5.9 5.8 5.6 5.9 6.3 6.6 6.4 5.7 5.4 5.4 5.2 5.3 5.3 5.3
5.8 5.5 5.5 5.8 5.6 5.4 5.5 5.4 5.4 5.2 5.2 5.1 5.0 4.9 5.1 5.2 5.0 4.5 5.9 5.9 6.1 6.2 6.5 6.6 6.4 6.1 6.0 5.9 5.9 5.8 5.8 6.0 6.3 6.9 7.1 7.0 5.7 5.5 5.2 5.0 5.2 5.0 5.6
5.2 5.0 5.0 5.4 5.6 5.4 4.9 5.3 5.4 5.1 5.3 5.3 5.0 5.2 5.3 5.2 4.9 5.1 5.7 5.9 6.0 6.2 6.5 6.7 6.4 6.0 5.7 5.8 5.8 5.9 6.0 6.4 6.8 7.4 7.5 7.3 6.3 5.7 5.0 4.7 4.8 5.2 5.6
6.0 5.9 5.6 5.5 5.4 5.5 5.0 4.9 5.3 5.3 5.4 5.2 5.3 5.2 5.3 4.6 4.4 5.0 5.5 5.8 5.7 6.2 6.4 6.8 6.4 5.7 5.7 5.8 5.7 5.9 6.4 6.7 7.0 7.5 7.5 7.3 6.9 6.6 6.1 5.6 4.9 5.0 5.2
6.5 6.7 6.2 5.7 5.6 5.7 5.0 4.8 4.9 5.1 5.1 5.5 5.4 5.3 5.1 4.6 5.1 5.6 5.8 5.7 6.0 6.4 6.4 6.4 6.0 5.7 5.6 5.7 5.9 6.1 6.6 7.0 6.9 7.3 7.5 7.2 7.2 7.1 6.6 6.0 5.7 5.6 5.4
6.1 6.0 5.8 5.6 5.5 5.3 5.0 4.7 5.3 5.4 5.3 5.4 5.5 5.0 4.3 5.1 5.4 5.7 5.6 6.0 6.2 6.3 6.4 6.2 5.8 5.5 5.6 5.8 5.8 6.4 6.8 6.9 7.1 7.3 7.3 7.3 7.2 7.1 7.0 6.7 6.1 5.9 5.7
5.8 6.0 5.4 5.2 5.2 5.2 5.3 5.5 5.3 5.2 5.3 5.5 5.0 4.2 5.0 5.0 5.6 5.6 5.8 5.9 6.1 6.1 6.0 5.8 5.5 5.4 5.8 5.8 6.2 6.8 7.0 6.9 7.0 7.1 7.2 7.2 7.1 7.1 6.9 6.7 6.8 6.6 6.2
5.3 5.2 5.2 5.1 5.1 5.0 4.9 5.1 5.3 5.2 5.2 5.2 4.4 4.1 4.8 5.4 5.6 5.4 5.6 5.8 5.9 5.9 5.8 5.6 5.5 5.8 5.9 6.0 6.6 6.9 7.0 6.8 6.8 6.8 6.9 7.1 6.9 7.0 7.1 6.9 6.9 6.8 6.5
5.2 5.0 4.9 4.7 4.7 5.1 4.9 4.8 5.1 5.0 4.7 4.6 4.4 5.2 5.4 5.6 5.5 5.4 5.7 6.1 6.0 5.7 5.5 5.6 5.9 6.0 6.0 6.5 6.7 6.8 6.7 6.8 6.7 6.6 6.7 6.8 6.9 6.9 6.7 6.8 6.8 6.9 6.7
Wind_Speed
4 5 4 3 3 3 3 3 3 4 4 5 5 6 7 8 10 13 16 25 24 22 20 20 21 23 24 25 25 26 26 27 29 27 27 16 18 20 23 24 24 24 24
6 5 4 3 3 2 4 4 2 2 3 3 4 5 6 8 13 15 16 20 25 24 24 23 24 21 22 23 24 25 24 24 25 26 27 26 26 22 17 22 25 27 26
5 7 4 3 4 6 6 6 6 8 4 5 5 6 8 12 13 15 15 17 20 23 23 22 22 21 22 21 22 23 24 24 24 24 25 24 24 25 23 24 19 22 25
6 9 5 4 5 7 7 4 2 4 4 4 3 4 4 10 13 12 13 13 15 16 20 24 24 22 21 21 21 21 21 23 25 26 24 24 24 25 24 23 21 21 23
7 10 6 6 7 7 4 2 3 3 3 3 3 4 4 5 9 12 12 13 15 15 18 24 25 23 22 20 19 19 20 20 20 21 21 22 23 24 24 24 24 21 20
4 6 5 5 7 4 3 2 3 3 2 2 3 4 4 4 7 6 8 13 14 17 16 17 17 20 22 21 20 20 20 19 18 19 21 21 22 24 24 25 24 25 25
1 2 4 5 5 4 3 3 3 3 3 1 4 4 7 7 7 5 8 12 16 17 18 18 15 14 15 19 18 19 19 20 20 21 21 20 20 22 23 24 25 25 25
3 2 4 3 4 4 3 2 3 2 2 0 3 3 4 2 6 7 6 7 10 15 16 16 15 14 13 13 17 19 19 20 21 21 21 20 20 20 21 22 23 23 25
3 3 5 5 4 3 3 2 3 5 3 1 2 3 3 3 4 4 7 6 8 7 12 14 15 15 15 14 16 18 22 22 21 21 21 21 21 20 21 23 23 24 23
4 5 6 6 5 4 4 2 2 2 4 4 2 4 4 3 3 4 3 6 6 7 6 11 11 12 15 18 18 19 20 21 20 20 21 23 23 22 21 25 26 27 25
4 3 6 8 5 4 3 4 3 5 3 3 1 1 3 4 3 3 3 3 5 4 5 8 10 11 15 13 14 11 14 15 16 18 20 20 22 23 22 22 26 28 29
2 3 5 5 4 4 5 4 4 5 5 5 3 3 2 2 2 3 3 3 5 2 2 6 8 11 14 15 11 12 15 15 18 20 21 23 22 21 24 24 23 25 29
2 3 4 4 2 3 5 5 5 5 5 5 5 3 3 3 2 3 3 3 3 3 2 3 7 10 11 12 10 11 13 14 16 17 18 18 19 21 23 23 24 24 23
5 6 6 7 7 6 5 5 3 4 5 5 7 5 4 3 3 2 3 4 3 2 2 4 6 9 10 10 8 7 10 11 14 16 17 18 19 21 23 23 23 23 23
6 6 8 5 6 7 7 5 3 4 4 4 5 5 4 3 3 4 3 2 3 3 1 1 2 5 6 7 5 8 9 11 13 16 19 21 21 22 23 23 23 24 23
8 8 8 7 6 5 4 4 4 4 6 3 4 5 4 2 3 3 4 3 2 3 3 2 2 2 5 4 7 11 10 9 12 15 18 19 22 22 22 23 23 23 24
11 11 9 8 7 6 6 5 5 5 6 5 4 5 5 4 3 2 3 2 3 3 5 3 2 4 4 3 5 10 10 10 10 12 14 16 19 21 21 23 23 24 24
11 12 10 9 8 7 6 7 6 6 6 6 5 5 4 5 2 2 3 2 2 1 3 6 2 4 2 3 3 7 5 6 5 7 9 14 17 19 19 20 23 25 24
10 10 10 10 9 8 6 5 6 7 10 8 7 6 6 4 5 2 4 4 2 1 3 4 3 2 1 2 4 4 7 9 10 9 8 10 16 20 20 21 23 23 24
10 9 8 8 9 8 6 9 8 8 9 10 8 5 3 5 4 4 5 3 4 4 6 6 4 3 1 2 3 2 3 6 5 9 11 10 11 19 20 20 22 23 25
8 8 9 9 9 7 6 10 9 8 9 9 7 5 6 9 9 8 4 4 5 5 4 4 4 1 1 2 2 2 0 2 3 8 5 8 7 11 17 19 20 24 25
11 11 9 9 9 6 19 17 12 7 7 8 8 8 9 12 15 19 18 16 8 4 4 2 2 2 1 1 1 2 1 2 1 9 3 4 10 6 14 17 22 24 24
11 10 9 8 7 6 11 16 17 7 7 7 8 8 8 9 11 11 17 22 21 18 12 6 6 2 2 1 2 1 4 2 2 3 2 2 6 5 13 17 22 23 23
9 8 7 7 7 3 8 13 17 8 7 6 5 4 8 7 8 9 10 12 9 10 11 10 5 3 2 3 4 2 5 5 3 5 6 2 2 2 10 16 19 23 22
7 7 8 9 7 7 18 21 14 9 8 7 5 6 7 7 13 15 11 11 7 4 12 12 13 15 14 12 6 5 2 2 2 2 6 2 2 3 1 7 16 20 22
8 7 8 7 9 9 19 20 15 7 9 6 4 5 13 10 12 14 9 8 9 1 4 5 7 7 11 16 18 14 2 3 2 3 3 3 3 1 2 2 13 15 16
Wind_Direction
142 160 167 174 182 168 131 105 101 84 87 74 83 100 94 90 73 82 77 82 82 82 84 81 77 69 63 57 53 50 45 43 40 36 31 357 286 256 246 244 236 234 230
159 168 171 155 137 125 86 83 82 79 55 42 72 86 90 88 97 98 92 83 87 87 84 80 76 69 61 57 54 48 42 39 35 32 29 25 24 12 289 258 251 243 233
150 169 170 123 129 105 96 81 65 63 57 51 60 49 68 83 104 106 102 96 87 87 89 84 79 71 61 52 47 42 37 34 30 27 22 16 14 12 1 4 284 259 247
126 123 118 118 133 104 94 84 67 74 74 63 56 22 34 76 103 107 111 106 101 94 81 81 78 74 65 56 50 43 36 30 26 24 16 12 8 3 356 355 344 342 262
117 134 134 126 129 109 91 104 80 109 84 56 64 53 46 91 103 107 107 110 109 99 90 80 77 71 67 62 52 43 36 29 23 16 9 5 2 359 354 348 344 341 330
97 125 117 97 127 105 93 79 88 58 111 123 76 63 53 81 85 88 103 97 96 93 91 83 75 67 60 53 46 38 32 26 19 14 9 3 359 352 348 346 340 337 332
61 145 104 109 121 123 137 137 113 112 39 73 106 72 60 56 62 50 57 83 87 84 78 77 72 67 60 53 45 34 25 19 14 12 8 1 356 351 344 337 335 333 326
41 156 128 134 137 118 101 109 143 135 121 267 138 102 125 88 55 57 64 79 80 82 75 73 78 76 59 48 45 36 27 19 14 10 7 2 354 348 344 341 336 322 321
94 148 150 151 145 132 143 158 157 152 145 359 53 146 131 165 139 45 58 73 79 78 74 66 58 57 54 51 44 31 25 22 20 14 9 4 359 355 352 345 338 335 319
133 142 145 142 144 135 128 141 150 166 140 157 86 55 63 128 147 143 75 60 69 76 75 82 79 71 63 54 40 27 20 18 17 17 14 11 5 359 357 355 355 352 345
136 134 138 137 137 129 117 125 114 117 114 140 137 117 54 53 72 140 149 138 76 52 71 88 91 78 66 62 56 40 32 24 28 20 16 12 9 2 4 360 4 360 357
155 137 150 134 123 118 128 125 105 102 107 94 86 107 139 147 180 132 111 124 125 85 80 83 96 90 75 60 53 53 42 36 35 26 23 18 14 15 15 9 1 358 359
165 159 124 125 118 128 119 120 112 113 116 113 108 88 72 82 119 107 98 126 137 171 133 69 75 103 82 75 71 59 49 43 43 31 26 21 24 28 18 13 10 6 1
155 150 142 139 135 131 118 102 87 90 99 101 107 93 96 77 70 79 134 141 98 108 116 127 44 83 80 64 70 73 61 47 49 38 35 30 32 26 20 14 12 9 8
157 150 146 135 134 138 137 119 90 76 74 84 88 93 89 75 74 92 79 93 138 145 124 43 113 58 81 80 99 119 76 59 57 50 41 38 31 24 19 18 15 12 12
150 147 145 143 136 125 111 110 106 98 96 91 96 100 93 82 74 83 103 87 75 122 127 127 68 100 45 87 94 100 78 66 59 61 49 41 37 28 23 19 16 15 14
156 156 154 145 141 135 136 124 114 119 107 101 92 99 109 117 89 98 85 101 93 83 115 83 92 59 21 25 87 95 82 68 48 63 54 44 42 36 24 20 19 19 19
160 156 151 143 138 143 139 139 148 122 111 91 76 76 66 91 64 101 113 106 104 106 113 124 113 51 16 352 95 83 62 79 65 58 65 54 37 46 35 24 24 22 19
153 154 153 147 141 135 130 110 106 104 102 93 73 71 83 88 85 60 73 74 65 102 91 135 114 83 15 354 43 84 42 34 43 37 84 43 45 43 41 31 30 25 25
148 149 144 131 119 118 121 110 107 104 102 91 81 75 85 85 102 92 86 69 86 91 95 105 90 87 357 14 42 39 68 39 26 31 43 59 57 45 37 36 29 34 28
114 109 97 95 101 97 110 114 113 110 105 102 106 114 88 98 101 90 99 80 100 99 95 97 96 97 41 45 41 323 163 112 41 19 28 23 335 45 37 29 34 32 33
122 119 123 128 127 124 133 130 122 131 124 126 129 103 92 92 92 89 85 83 84 112 124 118 91 130 102 80 11 290 18 129 158 30 350 14 355 33 38 36 37 36 34
134 138 130 123 108 105 130 139 140 134 126 144 133 137 125 109 92 89 85 82 77 78 81 93 115 141 121 124 253 13 65 67 60 345 344 16 351 48 40 31 44 35 35
133 128 120 110 99 101 149 151 131 121 124 132 140 128 124 124 117 114 100 90 81 79 85 95 112 139 134 214 198 135 117 115 108 24 4 104 324 355 41 41 40 37 35
115 121 121 118 110 117 130 130 118 114 104 111 115 118 140 133 133 123 113 105 91 50 109 103 95 74 63 70 112 102 128 162 52 341 357 89 310 312 3 39 37 36 35
122 119 114 116 124 131 132 129 121 123 121 113 102 94 140 136 139 134 114 117 108 98 92 67 50 39 46 54 62 73 89 111 106 15 284 91 325 326 14 357 46 28 23